Simultaneous Nadir Overpasses (SNOs) Predictions

Prediction of SNOs between NPP and PACE Satellite Orbit:

Table of predicted SNOs for the next 14.0 days since TLE Epoch: 6/7/2025
Index Date (NPP) Time (NPP) Lat,Lon (NPP) SZA (NPP ) Date (PACE) Time (PACE) Lat,Lon (PACE) SZA (PACE ) Distance(km) Time Diff (sec)
1 06/07/2025 22:29:23 79.80, 165.89 59.08 06/07/2025 22:30:07 79.81, 165.76 59.08 2.49 44
2 06/07/2025 23:20:02 -79.61, -25.09 121.27 06/07/2025 23:19:13 -79.62, -25.22 121.22 2.80 49
3 06/10/2025 03:46:33 -79.73, -92.74 121.22 06/10/2025 03:46:27 -79.73, -92.81 121.21 1.25 6
4 06/12/2025 08:13:04 -79.85,-160.44 121.15 06/12/2025 08:13:41 -79.85,-160.49 121.16 1.06 37
5 06/12/2025 09:03:43 79.67, 8.55 58.53 06/12/2025 09:02:46 79.67, 8.58 58.55 0.77 57
6 06/14/2025 13:30:13 79.76, -58.88 58.59 06/14/2025 13:29:59 79.76, -58.90 58.60 0.74 14
7 06/16/2025 17:56:44 79.88,-126.63 58.74 06/16/2025 17:57:12 79.87,-126.48 58.70 3.22 28
8 06/16/2025 18:47:21 -79.63, 42.98 121.72 06/16/2025 18:46:17 -79.64, 42.87 121.66 2.59 64
9 06/18/2025 22:23:12 79.91, 166.46 58.76 06/18/2025 22:24:23 79.91, 166.42 58.73 0.81 71



Historial Predications of SNOs between NPP and PACE
